User: anonymous   Login
Location: ????????
(55.0097°N, 38.5678°E)
Time: 22:31:14
(UTC+00:00)
Language:

Cosmos 1484 Rocket - Orbit

View from above orbital plane
View from above orbital plane
View from above satellite
View from above satellite

Ground track
Ground track

The orbit data is extracted from the following two-line orbital elements,

1 14208U 83075B   24168.92339958  .00007158  00000-0  31664-3 0  9991
2 14208  97.5681 148.2177 0029273 301.2458  58.5910 15.21611650233698
Epoch (UTC): 16 June 2024 22:09:41
Eccentricity: 0.0029273
inclination: 97.5681°
perigee height: 481 km
apogee height: 521 km
right ascension of ascending node: 148.2177°
argument of perigee: 301.2458°
revolutions per day: 15.21611650
mean anomaly at epoch: 58.5910°
orbit number at epoch: 23369

The dashed part of the orbit path shows where the satellite is in the earth's shadow,  

DLR